Weather in Zolotilovo

Russia / Ivanovo Oblast     57°19′17″N   41°38′35″E
temp.,
°C
wind,
m/s
gust,
m/s
humid.,
%
clouds,
%
prec.,
mm/h
press.,
hPa
HPBL,
m
8 december, wed
wed800:00−2sse51196100 0.8 1016427
03:00−2sse4898100 1.8 1015315
06:00−1s2599100 1.5 1015193
09:00−2wnw2598100 2.3 1017179
12:00−5nw479670 0.1 1019217
15:00−9nw3695100 0.1 1021124
18:00−13nnw369655 0.0 102293
21:00−14n369690 0.0 1023100
9 december, thu
thu900:00−12n3694100 0.0 1024147
03:00−11n3791100 0.0 1024203
06:00−10n4893100 0.3 1024267
09:00−10n3892100 0.4 1025267
12:00−11n38925 0.0 1026234
15:00−13nnw36945 0.0 1027108
18:00−16n37966 0.0 102998
21:00−17n239821 0.0 103043
10 december, fri
fri1000:00−19nnw22999 0.0 103138
03:00−19n24989 0.0 103348
06:00−18nne36979 0.0 103386
09:00−19nne239838 0.0 103543
12:00−14ne24925 0.0 1036136
15:00−15ne22965 0.0 10369
18:00−16ene36969 0.0 103779
21:00−16e379710 0.0 103892
11 december, sat
sat1100:00−16e379859 0.0 103989
03:00−17e259967 0.0 104061
06:00−17e369981 0.0 104084
09:00−16e379864 0.0 1041108
12:00−11ese3991100 0.0 1040209
15:00−11ese31089100 0.0 1040202
18:00−12se41286100 0.0 1041206
21:00−12se41286100 0.0 1041238
12 december, sun
sun1200:00−11se41384100 0.0 1041242
03:00−12se51287100 0.0 1041220
06:00−12sse41288100 0.0 1040220
09:00−11sse4128787 0.0 1040246
12:00−7s4128381 0.0 1040305
15:00−7sse4108599 0.0 1039273
18:00−7sse4108785 0.0 1039263
21:00−7sse41088100 0.0 1038231